Change the Weather History Date:

Friday, January 11, 2013

  Actual Average Record
Temperature  
Mean Temperature 11 °F 19 °F  
Max Temperature 17 °F 29 °F 55 °F (1987)
Min Temperature 5 °F 8 °F -27 °F (1974)
Degree Days  
Heating Degree Days 54 46  
Month to date heating degree days 472 507  
Since 1 July heating degree days 3382 3691  
Cooling Degree Days 0 0  
Month to date cooling degree days 0 0  
Year to date cooling degree days 0 0  
Moisture  
Dew Point 6 °F    
Average Humidity 81    
Maximum Humidity 88    
Minimum Humidity 73    
Precipitation  
Precipitation 0.03 in 0.01 in 0.19 in (1972)
Month to date precipitation 0.06 0.13  
Year to date precipitation 0.06 0.13  
Sea Level Pressure  
Sea Level Pressure 29.85 in    
Wind  
Wind Speed 19 mph (NW)    
Max Wind Speed 31 mph    
Max Gust Speed 36 mph    
Visibility 3 miles    
Events Fog , Snow    
T = Trace of Precipitation, MM = Missing Value Source: NWS Daily Summary

Daily Weather History Graph

Daily Weather History Graph

Search for Another Location

Airport or City:

Trip Planner

Search our weather history database for the weather conditions in past years. The results will help you decide how hot, cold, wet, or windy it might be!

Date:

Astronomy

Jan. 11, 2013 Rise Set
Actual Time 7:44 AM MST 4:38 PM MST
Civil Twilight 7:10 AM MST 5:12 PM MST
Nautical Twilight 6:33 AM MST 5:50 PM MST
Astronomical Twilight 5:56 AM MST 6:26 PM MST
Moon 7:17 AM MST (1/11) 5:03 PM MST (1/11)
Length of Visible Light 10h 02m
Length of Day
8h 53m
Waning Crescent, 0% of the Moon is Illuminated
Jan 11
Waning Crescent
Jan 11
New
Jan 18
First Quarter
Jan 26
Full
Feb 3
Last Quarter

Hourly Weather History & Observations

Time (MST) Temp. Windchill Dew Point Humidity Pressure Visibility Wind Dir Wind Speed Gust Speed Precip Events Conditions
12:53 AM 16.0 °F 1.7 °F 12.9 °F 88% 29.75 in 3.0 mi NW 13.8 mph - 0.00 in Snow Light Snow
1:00 AM 15.8 °F 1.4 °F 12.2 °F 86% 29.67 in 4.0 mi NNW 13.8 mph - 0.00 in Snow Light Snow
1:29 AM 15.8 °F 0.3 °F 12.2 °F 86% 29.67 in 8.0 mi NNW 16.1 mph - 0.00 in   Overcast
1:53 AM 15.1 °F -0.6 °F 10.0 °F 80% 29.76 in 10.0 mi NW 16.1 mph - 0.00 in   Overcast
2:53 AM 14.0 °F -3.0 °F 9.0 °F 80% 29.76 in 5.0 mi NW 18.4 mph - 0.00 in Snow Light Snow
2:58 AM 14.0 °F -2.0 °F 8.6 °F 79% 29.67 in 2.5 mi NW 16.1 mph - 0.00 in Snow Light Snow
3:09 AM 14.0 °F -1.4 °F 8.6 °F 79% 29.68 in 1.5 mi NW 15.0 mph - 0.00 in Snow Light Snow
3:21 AM 12.2 °F -3.7 °F 8.6 °F 85% 29.68 in 0.8 mi NW 15.0 mph - 0.00 in Snow Light Snow
3:35 AM 12.2 °F -4.3 °F 8.6 °F 85% 29.68 in 0.2 mi NW 16.1 mph - 0.01 in Fog , Snow Heavy Snow
3:48 AM 12.2 °F -2.5 °F 8.6 °F 85% 29.69 in 0.5 mi NW 12.7 mph - 0.02 in Fog , Snow Snow
3:53 AM 12.9 °F -3.4 °F 9.0 °F 84% 29.78 in 0.8 mi NW 16.1 mph - 0.02 in Snow Light Snow
4:01 AM 12.2 °F -4.3 °F 8.6 °F 85% 29.68 in 1.0 mi NW 16.1 mph - 0.00 in Snow Light Snow
4:12 AM 12.2 °F -4.3 °F 8.6 °F 85% 29.68 in 1.2 mi NW 16.1 mph - 0.00 in Snow Light Snow
4:53 AM 12.9 °F -3.9 °F 9.0 °F 84% 29.78 in 1.2 mi NW 17.3 mph - 0.00 in Snow Light Snow
5:27 AM 12.2 °F -3.7 °F 8.6 °F 85% 29.69 in 1.2 mi NW 15.0 mph - 0.00 in Snow Light Snow
5:48 AM 12.2 °F -5.3 °F 8.6 °F 85% 29.70 in 0.8 mi NW 18.4 mph - 0.01 in Snow Light Snow
5:53 AM 12.9 °F -3.9 °F 9.0 °F 84% 29.81 in 0.8 mi NW 17.3 mph - 0.01 in Snow Light Snow
6:18 AM 12.2 °F -4.3 °F 8.6 °F 85% 29.70 in 1.0 mi NW 16.1 mph - 0.00 in Snow Light Snow
6:53 AM 12.9 °F -4.4 °F 8.1 °F 81% 29.81 in 1.0 mi NW 18.4 mph - 0.00 in Snow Light Snow
7:51 AM 12.2 °F -5.8 °F 8.6 °F 85% 29.72 in 1.0 mi NW 19.6 mph - 0.00 in Snow Light Snow
7:53 AM 12.9 °F -4.9 °F 9.0 °F 84% 29.84 in 1.0 mi NW 19.6 mph - 0.00 in Snow Light Snow
8:00 AM 12.2 °F -5.3 °F 8.6 °F 85% 29.72 in 0.8 mi NW 18.4 mph - 0.00 in Snow Light Snow
8:28 AM 12.2 °F -5.3 °F 8.6 °F 85% 29.73 in 1.0 mi NW 18.4 mph - 0.00 in Snow Light Snow
8:53 AM 12.9 °F -4.4 °F 8.1 °F 81% 29.86 in 1.5 mi NW 18.4 mph - 0.00 in Snow Light Snow
9:00 AM 12.2 °F -5.8 °F 8.6 °F 85% 29.74 in 1.2 mi NNW 19.6 mph - 0.00 in Snow Light Snow
9:44 AM 12.2 °F -4.8 °F 8.6 °F 85% 29.74 in 2.0 mi NNW 17.3 mph - 0.00 in Snow Light Snow
9:53 AM 12.0 °F -4.0 °F 8.1 °F 84% 29.88 in 2.5 mi NNW 15.0 mph - 0.00 in Snow Light Snow
10:05 AM 12.2 °F -4.3 °F 8.6 °F 85% 29.76 in 4.0 mi NNW 16.1 mph - 0.00 in Snow Light Snow
10:19 AM 12.2 °F -3.7 °F 6.8 °F 79% 29.79 in 6.0 mi NNW 15.0 mph - 0.00 in Snow Light Snow
10:46 AM 12.2 °F -1.8 °F 6.8 °F 79% 29.80 in 1.8 mi NW 11.5 mph - 0.00 in Snow Light Snow
10:53 AM 12.9 °F -1.6 °F 7.0 °F 77% 29.93 in 1.5 mi NNW 12.7 mph - 0.00 in Snow Light Snow
11:01 AM 12.2 °F -3.1 °F 6.8 °F 79% 29.81 in 1.0 mi NW 13.8 mph - 0.00 in Snow Light Snow
11:13 AM 12.2 °F -4.8 °F 6.8 °F 79% 29.79 in 2.0 mi NW 17.3 mph - 0.00 in Snow Light Snow
11:21 AM 12.2 °F -6.7 °F 6.8 °F 79% 29.79 in 1.0 mi NW 21.9 mph 26.5 mph 0.00 in Snow Light Snow
11:23 AM 12.2 °F -6.7 °F 6.8 °F 79% 29.79 in 0.8 mi NNW 21.9 mph - 0.00 in Snow Light Snow
11:33 AM 12.2 °F -5.3 °F 6.8 °F 79% 29.79 in 1.5 mi NNW 18.4 mph - 0.00 in Snow Light Snow
11:40 AM 10.4 °F -8.2 °F 6.8 °F 85% 29.79 in 2.5 mi NNW 19.6 mph - 0.00 in Snow Light Snow
11:53 AM 12.0 °F -6.0 °F 6.1 °F 77% 29.91 in 2.5 mi NNW 19.6 mph 25.3 mph 0.00 in Snow Light Snow
12:48 PM 10.4 °F -8.6 °F 3.2 °F 73% 29.77 in 3.0 mi NNW 20.7 mph - 0.00 in Snow Light Snow
1:53 PM 9.0 °F -9.5 °F 3.0 °F 77% 29.97 in 5.0 mi NNW 18.4 mph 26.5 mph 0.00 in Snow Light Snow
2:45 PM 10.4 °F -9.9 °F 3.2 °F 73% 29.83 in 2.5 mi NNW 24.2 mph 29.9 mph 0.00 in Snow Light Snow
2:53 PM 10.0 °F -9.1 °F 3.0 °F 73% 29.97 in 2.5 mi NNW 20.7 mph 29.9 mph 0.00 in Snow Light Snow
3:09 PM 10.4 °F -9.1 °F 3.2 °F 73% 29.84 in 2.0 mi NNW 21.9 mph - 0.00 in Snow Light Snow
3:19 PM 8.6 °F -11.9 °F 1.4 °F 73% 29.85 in 2.5 mi NNW 23.0 mph - 0.00 in Snow Light Snow
3:31 PM 8.6 °F -11.4 °F 1.4 °F 73% 29.85 in 4.0 mi NNW 21.9 mph 29.9 mph 0.00 in Snow Light Snow
3:53 PM 8.1 °F -12.2 °F 1.9 °F 76% 30.01 in 7.0 mi NNW 21.9 mph 28.8 mph 0.00 in Snow Light Snow
4:53 PM 7.0 °F -12.6 °F -0.0 °F 73% 30.05 in 10.0 mi NNW 19.6 mph 28.8 mph 0.00 in   Overcast
5:53 PM 7.0 °F -11.6 °F 1.0 °F 77% 30.08 in 10.0 mi NW 17.3 mph - 0.00 in   Overcast
6:53 PM 7.0 °F -12.1 °F 1.0 °F 77% 30.10 in 7.0 mi NW 18.4 mph - 0.00 in Snow Light Snow
7:10 PM 6.8 °F -13.4 °F 1.4 °F 79% 29.96 in 2.5 mi NW 20.7 mph 28.8 mph 0.00 in Snow Light Snow
7:19 PM 6.8 °F -13.8 °F 1.4 °F 79% 29.96 in 1.2 mi NW 21.9 mph - 0.00 in Snow Light Snow
7:53 PM 6.1 °F -15.2 °F 1.0 °F 80% 30.12 in 1.2 mi NW 23.0 mph - 0.00 in Snow Light Snow
8:25 PM 5.0 °F -16.7 °F -0.4 °F 78% 29.98 in 2.0 mi NW 23.0 mph 28.8 mph 0.00 in Snow Light Snow
8:38 PM 5.0 °F -15.7 °F -0.4 °F 78% 29.98 in 2.0 mi NNW 20.7 mph - 0.00 in Snow Light Snow
8:53 PM 5.0 °F -16.2 °F -0.0 °F 80% 30.14 in 1.8 mi NNW 21.9 mph 28.8 mph 0.00 in Snow Light Snow
9:41 PM 5.0 °F -16.7 °F -0.4 °F 78% 30.00 in 2.0 mi NNW 23.0 mph 28.8 mph 0.00 in Snow Light Snow
9:53 PM 5.0 °F -15.2 °F -0.0 °F 80% 30.15 in 2.0 mi NNW 19.6 mph 27.6 mph 0.00 in Snow Light Snow
10:17 PM 5.0 °F -18.3 °F -0.4 °F 78% 30.00 in 1.0 mi NW 27.6 mph 35.7 mph 0.00 in Snow Light Snow
10:53 PM 5.0 °F -17.1 °F -0.0 °F 80% 30.17 in 2.0 mi NW 24.2 mph - 0.00 in Snow Light Snow
11:53 PM 5.0 °F -15.2 °F -0.9 °F 76% 30.21 in 1.8 mi NW 19.6 mph 27.6 mph 0.00 in Snow Light Snow